Погода в Дольске

Украина / Волынская область     51°53′35″N   25°31′02″E
темп.,
°C
ветер,
м/с
пор.,
м/с
влажн.,
%
обл.,
%
осадки,
мм/ч
давл.,
гПа
погр.,
м
16 мая, вс
вс1600:00+10ююв118142 0.0 101011
03:00+9ю228938 0.0 101125
06:00+8ююв229032 0.0 101030
09:00+14юв4574100 0.0 1010321
12:00+19ююв676021 0.0 10091340
15:00+19ююв576690 1.0 10081263
18:00+19ююв6974100 1.3 1006866
21:00+15ююв41085100 3.6 1006199
17 мая, пн
пн1700:00+13ююз3795100 1.7 1006193
03:00+12ю349696 1.7 100795
06:00+12ююз2598100 1.2 1007159
09:00+13юз1194100 2.5 1007194
12:00+17в3375100 0.0 1006838
15:00+19всв2269100 1.0 1004875
18:00+18ссв1176100 2.6 1003450
21:00+14всв2393100 7.1 100254
18 мая, вт
вт1800:00+13в3698100 1.8 1001179
03:00+13вюв2499100 3.3 1000141
06:00+13зсз129997 1.6 999152
09:00+15зсз468864 1.6 1000502
12:00+18сз4573100 0.8 10011080
15:00+19сз566894 2.3 10021191
18:00+17сз4677100 1.1 1003490
21:00+14зсз71390100 1.8 1004452
19 мая, ср
ср1900:00+12сз61294100 0.5 1004449
03:00+10зсз71297100 11.4 1005486
06:00+10зсз71397100 9.7 1005436
09:00+9зсз81397100 19.8 1006611
12:00+10сз81494100 3.4 1008819
15:00+13сз81283100 4.1 10081200
18:00+13сз5983100 0.9 1008914
21:00+11зсз3592100 1.1 100995
20 мая, чт
чт2000:00+9зсз3794100 0.0 1009135
03:00+8зсз4996100 0.0 1010204
06:00+7зсз499823 0.0 1010241
09:00+11сз468899 0.0 1011478
12:00+14сз4573100 0.1 10111050
15:00+16сз4556100 0.2 10111904
18:00+16ссз2465100 0.0 1011686
21:00+13ссз2270100 0.1 101117